Temperature
6 6 6 6 6 6 6 6 6 6 6 6 6 6 6 6 6 6 6 6 6 5 5 5 5 5 5 4 4 4 4 3 3 3 3 3 3 3 3 3 3 3 3
5 5 5 5 5 6 5 5 5 5 6 6 5 6 6 6 5 5 5 5 5 5 5 4 4 4 4 4 4 4 3 3 3 3 3 3 3 3 3 3 3 3 2
4 4 5 5 5 5 5 5 5 5 5 5 5 5 5 5 5 5 5 4 4 4 4 4 4 4 4 4 3 3 3 3 2 2 2 2 2 2 2 2 2 2 2
4 4 4 4 4 4 4 4 4 4 4 4 4 4 4 4 4 4 4 4 4 4 3 3 3 3 3 3 3 3 3 3 2 2 2 2 2 2 2 2 2 2 2
3 3 3 3 3 3 3 3 3 3 3 4 4 4 3 3 3 3 3 3 3 3 3 3 3 3 3 2 2 2 2 2 2 2 2 1 1 1 1 1 1 1 1
2 2 2 3 3 3 3 3 3 3 3 3 3 3 3 3 3 3 3 3 3 3 3 3 2 2 2 2 2 2 2 2 1 1 1 1 1 1 1 1 0 0 0
2 2 2 2 2 2 2 2 2 2 2 2 2 2 2 2 2 2 2 2 2 2 2 2 2 2 2 1 1 1 1 1 1 1 1 1 0 0 0 0 -0 -0 -0
1 1 1 1 1 1 1 1 1 1 1 1 1 1 1 1 1 1 1 1 2 2 2 1 1 1 1 1 1 1 1 1 1 1 0 0 0 -0 -0 -0 -0 -0 -0
0 0 0 0 1 1 1 1 1 1 1 1 1 1 1 1 1 1 1 1 1 1 1 1 1 1 0 1 1 1 1 1 1 1 0 0 -0 -0 -0 -0 -0 -1 -1
-1 -0 -0 -0 -0 -0 0 0 -0 -0 -0 -0 -0 -0 0 0 0 0 0 0 0 0 0 0 0 0 0 0 0 0 0 0 0 0 0 0 -0 -0 -0 -1 -1 -1 -2
-1 -1 -1 -1 -1 -1 -1 -1 -1 -1 -1 -1 -0 -1 -1 -0 -1 -1 -1 -0 -0 -0 -0 -0 -0 -0 -0 -0 -0 -0 -1 -0 -0 -0 -0 -0 -0 -1 -1 -1 -1 -2 -2
-2 -2 -1 -1 -1 -1 -1 -1 -1 -1 -1 -1 -1 -1 -1 -1 -1 -1 -1 -1 -1 -1 -1 -1 -1 -0 -0 -0 -1 -1 -1 -1 -1 -1 -1 -1 -1 -1 -1 -1 -1 -2 -2
-2 -2 -2 -2 -2 -2 -2 -2 -2 -2 -2 -2 -2 -2 -2 -2 -1 -1 -1 -1 -1 -1 -1 -1 -1 -1 -1 -1 -1 -1 -1 -1 -1 -1 -1 -1 -1 -1 -2 -2 -2 -2 -2
-3 -2 -2 -2 -2 -2 -2 -2 -2 -2 -2 -2 -2 -2 -2 -2 -2 -2 -2 -2 -2 -2 -1 -1 -1 -1 -1 -1 -1 -1 -1 -1 -1 -2 -2 -2 -2 -2 -2 -2 -2 -2 -2
-3 -3 -3 -3 -3 -3 -3 -3 -3 -3 -3 -3 -3 -3 -3 -2 -3 -2 -3 -2 -2 -2 -2 -2 -2 -1 -1 -1 -1 -2 -2 -2 -2 -2 -2 -2 -2 -2 -2 -2 -2 -2 -3
-3 -3 -3 -3 -3 -3 -3 -3 -3 -3 -3 -3 -3 -3 -3 -3 -3 -3 -3 -3 -3 -3 -2 -2 -2 -2 -2 -2 -2 -2 -2 -2 -2 -2 -2 -2 -2 -2 -3 -3 -3 -3 -3
-4 -4 -4 -4 -4 -3 -3 -3 -3 -3 -4 -4 -4 -4 -4 -3 -3 -3 -3 -3 -3 -3 -3 -3 -3 -3 -3 -3 -2 -2 -2 -3 -3 -3 -3 -3 -3 -3 -3 -3 -3 -3 -3
-4 -4 -4 -4 -4 -4 -4 -4 -4 -4 -4 -4 -4 -4 -4 -4 -4 -3 -3 -3 -3 -3 -3 -3 -3 -3 -3 -3 -3 -3 -3 -3 -3 -3 -3 -3 -3 -3 -3 -3 -3 -4 -4
-4 -4 -4 -4 -4 -4 -4 -4 -4 -4 -4 -4 -4 -4 -4 -4 -4 -4 -4 -4 -4 -4 -4 -4 -4 -4 -4 -3 -4 -3 -3 -3 -3 -3 -3 -3 -3 -3 -3 -3 -4 -4 -4
-5 -5 -5 -5 -5 -5 -5 -5 -5 -5 -5 -5 -5 -5 -4 -4 -4 -4 -4 -4 -4 -4 -4 -4 -4 -4 -4 -4 -4 -4 -4 -4 -4 -4 -4 -4 -4 -4 -3 -4 -4 -4 -4
-5 -5 -5 -5 -5 -5 -5 -5 -5 -5 -5 -5 -5 -5 -5 -5 -5 -5 -5 -5 -5 -5 -5 -4 -4 -4 -4 -4 -4 -4 -4 -4 -4 -4 -4 -4 -4 -4 -4 -4 -4 -4 -4
-5 -5 -5 -5 -5 -5 -5 -5 -5 -5 -5 -5 -5 -5 -5 -5 -5 -5 -5 -5 -5 -5 -5 -5 -5 -5 -4 -4 -4 -4 -4 -4 -4 -4 -4 -4 -4 -4 -4 -4 -4 -4 -4
-6 -6 -6 -6 -6 -6 -6 -6 -6 -6 -6 -6 -6 -6 -6 -6 -6 -6 -5 -5 -5 -5 -5 -5 -5 -5 -5 -4 -4 -4 -4 -4 -4 -4 -4 -4 -4 -4 -4 -4 -4 -4 -4
-6 -6 -6 -6 -6 -6 -6 -6 -6 -6 -6 -6 -6 -6 -6 -6 -6 -6 -6 -6 -6 -6 -5 -5 -5 -5 -5 -5 -5 -5 -5 -4 -4 -4 -4 -4 -4 -4 -4 -4 -4 -4 -4
-6 -6 -6 -6 -6 -6 -6 -6 -6 -6 -6 -6 -6 -6 -6 -6 -6 -6 -6 -6 -6 -6 -6 -6 -5 -5 -5 -5 -5 -5 -5 -4 -4 -4 -4 -4 -4 -4 -4 -4 -4 -4 -4
-7 -7 -7 -7 -7 -7 -6 -6 -6 -6 -6 -6 -6 -6 -6 -6 -6 -6 -6 -6 -6 -6 -6 -6 -6 -5 -5 -5 -5 -5 -5 -5 -5 -5 -5 -5 -5 -4 -4 -4 -4 -4 -4
Wind_Speed
1 1 1 1 2 3 3 3 3 3 3 3 3 3 3 3 3 4 4 4 4 3 3 3 3 2 2 2 2 2 2 3 5 4 3 4 4 5 7 8 9 9 10
1 1 1 1 1 2 2 2 3 3 3 3 3 3 2 2 3 3 4 4 4 4 3 3 3 2 2 2 2 3 3 3 4 5 5 4 4 5 5 6 7 8 9
0 0 0 1 1 2 2 2 2 2 2 3 3 3 3 2 2 3 3 4 4 3 3 3 3 3 3 2 2 3 2 2 2 3 4 4 4 4 5 6 6 6 8
2 1 0 1 1 1 1 2 2 2 3 3 3 3 3 3 3 3 3 2 3 3 3 3 3 3 4 3 3 3 2 2 2 2 3 4 4 4 4 5 6 5 6
3 2 2 1 0 0 1 1 1 2 2 2 2 2 2 2 2 3 3 3 2 2 1 1 2 1 2 2 1 2 1 1 1 2 3 3 4 5 5 4 6 7 6
3 3 3 2 1 1 1 1 1 1 1 2 2 3 2 1 2 2 2 1 2 1 1 0 0 1 1 2 2 1 1 1 1 2 3 4 4 4 4 4 5 6 5
3 3 3 2 2 1 1 1 1 1 1 1 1 2 2 2 3 2 2 1 1 1 1 1 1 0 1 1 1 2 2 2 1 1 2 3 4 4 4 5 5 5 5
3 3 3 3 2 2 1 1 1 1 1 1 0 1 1 1 2 2 2 1 1 1 1 1 1 1 1 1 0 1 1 1 2 1 2 3 3 3 3 4 5 5 5
4 4 3 2 2 1 1 1 1 1 1 1 0 0 0 1 1 2 2 1 1 0 1 0 1 2 1 2 1 0 2 2 3 4 4 4 5 5 5 3 4 4 5
3 3 3 2 1 1 1 1 1 1 0 1 1 0 0 1 1 2 2 2 1 0 1 1 1 1 1 1 1 1 1 2 2 3 4 5 5 5 5 3 2 3 4
3 3 3 2 1 1 1 1 1 1 1 1 1 1 1 1 1 1 2 1 1 1 0 1 1 2 1 1 1 1 2 1 1 1 2 3 3 4 4 5 3 2 3
3 3 3 2 2 1 1 1 1 1 1 1 1 1 1 1 1 1 1 0 1 1 1 1 1 2 1 1 1 2 2 2 1 1 2 3 3 4 4 6 6 5 4
3 3 3 3 2 1 1 1 1 0 1 0 0 1 1 1 1 1 1 0 0 0 0 1 1 1 2 1 2 3 2 1 1 2 2 3 3 3 4 5 5 6 5
2 3 2 2 2 1 1 0 0 1 1 1 1 1 1 1 1 1 0 0 0 1 1 1 2 3 3 2 2 2 2 1 1 1 2 2 3 3 3 4 4 5 5
2 2 2 1 1 1 1 0 1 2 2 2 2 2 2 2 2 2 1 0 1 1 1 1 2 2 2 2 2 2 2 2 2 2 2 2 3 4 4 4 4 4 4
2 2 1 1 1 0 1 1 2 1 1 1 2 1 2 2 2 2 1 0 1 3 2 1 1 1 1 1 2 2 2 2 2 2 2 2 3 4 4 4 4 4 4
2 2 1 1 1 0 0 0 1 2 3 2 1 1 1 1 1 1 0 1 2 3 2 1 0 0 1 1 1 1 2 2 2 2 2 2 3 3 4 4 4 4 4
2 2 2 1 1 1 1 1 1 0 1 2 2 2 2 2 1 1 1 2 1 1 1 0 0 0 1 1 1 1 2 2 2 2 2 2 3 3 3 4 4 4 5
2 2 1 1 1 1 1 1 1 1 0 0 1 2 3 2 3 3 3 1 1 0 0 0 0 1 1 1 1 1 1 2 2 2 2 2 2 3 3 4 4 5 5
2 3 2 1 1 0 1 1 1 1 1 0 0 1 1 1 1 1 1 1 1 0 0 0 1 1 1 1 1 1 1 2 2 2 2 2 3 3 3 4 4 4 4
1 1 2 1 0 1 1 1 1 1 1 1 1 1 1 1 0 0 0 0 0 0 1 1 1 1 1 1 1 1 2 2 2 2 2 3 3 3 3 3 4 4 4
1 1 1 1 1 1 1 1 1 1 1 1 1 1 1 1 1 0 0 0 1 1 1 1 1 1 1 1 1 1 2 2 2 2 2 3 2 3 3 3 3 3 4
1 1 0 0 1 1 1 1 1 1 1 1 0 0 0 0 0 0 0 1 1 1 1 1 1 1 2 2 2 2 2 3 3 3 2 2 2 2 3 3 4 4 4
1 1 1 0 0 1 1 1 1 1 1 1 1 0 0 0 0 0 0 1 1 2 2 1 1 2 3 3 3 3 3 4 4 3 2 2 2 2 2 3 3 3 3
1 1 1 1 1 1 1 1 1 1 1 1 1 1 0 0 0 0 1 1 1 2 2 2 2 2 3 3 3 4 5 5 4 3 2 1 2 2 2 2 2 3 3
1 1 1 1 1 1 1 1 1 1 1 1 1 1 1 1 0 0 0 1 1 2 2 2 3 3 4 3 4 5 5 4 3 3 2 1 1 2 2 2 2 2 2
Wind_Direction
265 276 219 199 182 176 177 184 190 188 181 178 187 193 191 196 190 191 197 194 195 207 213 207 223 219 224 234 236 234 231 227 255 285 294 304 304 315 323 325 322 322 324
241 230 239 206 174 173 180 187 185 190 188 184 183 190 199 202 197 198 205 203 203 208 214 214 223 218 225 233 232 238 241 236 246 279 301 306 304 310 319 324 327 324 318
333 227 238 208 199 202 196 187 180 191 191 180 178 187 193 197 208 208 212 212 209 214 213 217 227 214 230 238 230 243 253 261 252 272 297 311 315 325 328 328 327 324 324
12 8 289 258 228 227 199 178 181 186 188 188 189 189 190 192 203 209 210 219 217 217 217 224 231 225 230 233 230 235 244 253 270 287 304 317 319 322 330 332 331 330 324
12 8 347 330 46 101 135 159 167 179 185 172 167 171 183 187 202 207 208 208 213 217 224 240 251 262 262 252 253 244 242 266 292 306 312 320 326 332 330 326 324 325 317
13 1 359 13 42 65 93 118 130 142 156 156 166 173 184 209 206 205 188 177 187 182 182 171 325 303 309 319 329 347 18 299 284 293 301 310 312 314 320 326 326 331 323
16 9 8 9 15 29 80 95 105 121 139 153 165 172 192 206 202 193 175 148 173 181 178 185 221 329 352 281 315 5 10 359 333 250 276 292 304 309 318 321 317 313 302
16 13 9 11 14 27 62 74 78 101 123 133 143 184 215 231 196 166 142 117 158 200 197 190 207 231 262 319 81 21 343 328 318 307 264 283 296 299 294 296 296 307 304
10 3 357 3 8 20 53 54 47 69 96 117 142 144 202 255 171 150 124 121 132 300 285 202 222 235 282 30 88 18 338 336 346 344 339 337 336 341 348 351 340 336 325
348 342 345 354 357 359 21 54 47 60 71 85 64 33 270 266 202 174 138 140 135 12 328 288 274 280 307 13 120 198 278 302 332 349 351 350 355 355 360 3 324 321 320
344 349 354 356 352 14 49 68 76 69 67 60 51 5 322 276 257 218 166 153 158 172 262 300 306 305 309 340 357 276 284 324 332 342 344 350 355 357 353 348 335 299 298
353 355 356 359 5 35 73 64 72 99 87 58 45 355 325 297 292 265 218 177 141 174 236 269 291 324 329 360 -0 351 13 43 54 20 6 357 351 345 337 335 332 326 303
2 356 356 5 27 44 89 98 72 103 138 190 209 274 300 305 298 301 269 288 276 136 237 291 330 22 45 48 32 32 47 65 48 18 349 334 331 326 334 339 343 345 344
356 349 351 8 22 30 24 100 187 205 214 225 236 268 291 299 295 284 239 248 67 51 40 55 56 64 52 44 49 46 36 38 34 351 331 330 333 338 343 343 340 344 347
345 340 347 359 5 15 6 316 264 247 235 225 236 242 252 272 286 294 259 200 150 122 84 66 60 47 35 29 32 35 29 30 24 9 356 344 343 344 344 344 343 346 344
337 333 335 343 341 0 16 13 8 348 324 293 267 274 274 269 283 289 292 276 129 121 99 85 68 52 30 9 6 9 9 8 359 350 347 340 337 339 340 341 345 344 336
307 303 298 283 261 257 245 106 12 11 18 18 357 332 308 298 297 302 288 137 130 121 99 94 56 29 354 346 348 350 340 339 337 335 332 332 335 337 340 340 343 341 335
300 290 276 255 244 237 225 205 199 240 355 353 354 360 356 358 1 35 102 105 96 87 106 145 249 282 293 314 328 333 334 339 339 329 325 329 333 335 336 335 333 332 330
288 276 260 247 245 227 201 173 164 154 143 344 348 355 11 26 42 60 67 76 123 133 111 302 273 275 289 303 312 317 319 318 326 325 320 322 323 326 327 326 324 329 334
279 276 277 255 237 204 165 162 163 160 165 193 296 322 347 32 50 44 46 56 68 35 264 272 295 292 292 290 296 308 318 318 320 316 315 316 317 313 316 320 322 322 322
271 270 277 298 194 197 178 183 186 183 186 224 276 293 318 93 99 91 65 46 353 301 301 292 291 294 298 301 299 301 305 304 302 303 309 312 313 316 318 319 318 320 322
264 260 246 205 188 186 180 178 168 172 184 202 287 308 354 57 72 67 20 344 345 340 326 314 299 297 294 290 279 282 283 288 294 300 305 308 313 321 324 325 324 324 328
248 251 244 193 176 191 177 150 155 165 178 199 244 296 55 70 64 3 328 342 352 347 348 340 320 316 319 311 295 278 271 276 283 286 296 307 317 319 318 318 321 325 331
221 230 218 199 169 160 166 168 170 177 184 198 215 205 178 161 20 323 333 347 349 346 346 332 308 303 307 315 313 301 292 295 301 294 284 291 303 310 313 316 318 322 325
216 214 202 193 187 185 180 181 181 180 187 203 203 199 185 168 192 303 336 343 341 333 325 322 317 309 300 304 312 314 313 316 320 321 312 293 295 306 313 315 319 328 337
207 205 202 195 193 188 185 191 198 196 196 205 205 198 196 200 211 262 293 317 327 328 324 322 317 319 318 319 321 325 328 329 337 338 331 318 307 318 325 320 327 339 348
Height
1465 1466 1467 1469 1470 1471 1472 1474 1476 1477 1478 1479 1481 1482 1482 1483 1484 1485 1486 1486 1486 1487 1487 1487 1487 1487 1487 1487 1486 1486 1485 1484 1482 1480 1479 1478 1475 1473 1471 1469 1467 1464 1461
1462 1463 1464 1465 1467 1468 1469 1470 1472 1473 1475 1476 1477 1478 1479 1480 1480 1481 1482 1482 1483 1483 1483 1483 1483 1483 1483 1483 1483 1482 1481 1480 1479 1477 1475 1474 1472 1470 1468 1465 1463 1460 1458
1459 1460 1461 1462 1463 1464 1465 1467 1468 1469 1471 1472 1473 1474 1475 1476 1477 1477 1478 1479 1479 1479 1480 1480 1480 1480 1479 1479 1479 1478 1477 1477 1476 1474 1472 1471 1469 1467 1465 1462 1460 1457 1455
1457 1458 1458 1459 1459 1460 1462 1463 1465 1466 1467 1468 1469 1470 1471 1472 1473 1474 1474 1475 1475 1476 1476 1476 1476 1476 1476 1476 1475 1475 1474 1473 1472 1471 1469 1467 1466 1464 1462 1459 1456 1454 1452
1454 1455 1455 1456 1456 1458 1459 1460 1461 1463 1464 1465 1466 1467 1468 1468 1469 1470 1471 1471 1471 1472 1472 1473 1473 1473 1473 1473 1473 1472 1471 1470 1468 1467 1466 1464 1462 1460 1458 1456 1453 1450 1448
1452 1452 1452 1453 1454 1455 1456 1457 1458 1459 1461 1462 1462 1463 1464 1465 1466 1467 1467 1468 1468 1469 1469 1469 1469 1470 1470 1470 1469 1469 1468 1467 1465 1464 1463 1461 1459 1458 1456 1454 1451 1448 1444
1450 1450 1451 1451 1452 1452 1453 1454 1455 1456 1458 1459 1460 1460 1461 1462 1463 1463 1464 1465 1465 1465 1466 1466 1466 1466 1466 1466 1466 1466 1465 1464 1463 1463 1461 1459 1457 1455 1453 1451 1449 1446 1443
1449 1449 1449 1449 1449 1450 1451 1452 1453 1454 1455 1456 1456 1457 1458 1459 1459 1460 1461 1461 1461 1462 1462 1462 1463 1463 1463 1463 1463 1462 1461 1461 1460 1459 1459 1457 1456 1454 1452 1450 1448 1444 1442
1447 1447 1447 1448 1447 1448 1449 1449 1450 1451 1452 1453 1453 1454 1455 1456 1456 1457 1458 1458 1458 1459 1459 1459 1460 1460 1460 1460 1459 1459 1458 1458 1458 1457 1456 1455 1453 1451 1450 1447 1445 1442 1438
1447 1446 1446 1446 1446 1446 1447 1447 1448 1449 1450 1450 1451 1452 1452 1453 1454 1454 1455 1455 1455 1456 1456 1457 1457 1457 1457 1457 1456 1455 1455 1455 1454 1453 1453 1452 1451 1449 1447 1445 1443 1440 1437
1446 1445 1445 1445 1445 1445 1445 1445 1446 1447 1447 1448 1448 1449 1450 1451 1451 1452 1452 1453 1453 1453 1453 1454 1454 1455 1454 1454 1454 1453 1453 1453 1452 1451 1450 1449 1448 1446 1444 1443 1441 1439 1436
1444 1444 1444 1444 1444 1444 1444 1444 1445 1445 1445 1446 1447 1447 1448 1449 1449 1449 1450 1450 1450 1451 1451 1451 1451 1452 1452 1452 1451 1451 1451 1450 1450 1449 1448 1446 1445 1444 1442 1441 1439 1437 1435
1443 1443 1443 1442 1443 1443 1443 1443 1443 1444 1444 1444 1445 1445 1446 1446 1447 1447 1448 1448 1448 1449 1449 1449 1449 1449 1449 1449 1449 1449 1449 1448 1447 1447 1445 1444 1443 1442 1440 1438 1437 1435 1433
1442 1441 1441 1441 1441 1442 1442 1442 1442 1442 1442 1442 1443 1443 1443 1444 1444 1445 1445 1446 1446 1446 1447 1447 1447 1447 1447 1447 1447 1447 1447 1446 1446 1445 1443 1442 1441 1440 1438 1436 1434 1432 1430
1440 1440 1440 1440 1440 1440 1440 1440 1440 1440 1441 1441 1441 1441 1442 1442 1442 1443 1443 1444 1444 1444 1445 1445 1445 1445 1445 1445 1445 1445 1445 1444 1444 1443 1442 1441 1439 1438 1436 1435 1433 1431 1428
1439 1438 1438 1438 1438 1438 1438 1438 1439 1439 1439 1439 1439 1440 1440 1441 1441 1441 1441 1442 1443 1443 1443 1443 1443 1443 1443 1443 1443 1443 1443 1443 1442 1441 1440 1439 1438 1436 1435 1433 1432 1430 1427
1437 1437 1437 1437 1437 1437 1437 1436 1436 1437 1437 1438 1438 1438 1438 1439 1439 1439 1440 1441 1441 1442 1442 1441 1441 1441 1441 1442 1441 1441 1441 1441 1441 1440 1439 1438 1437 1435 1434 1432 1430 1429 1427
1435 1435 1435 1435 1435 1435 1435 1435 1435 1435 1435 1435 1436 1436 1437 1437 1438 1438 1439 1439 1440 1440 1440 1440 1440 1440 1440 1440 1440 1440 1440 1440 1439 1439 1438 1437 1436 1434 1433 1431 1429 1428 1426
1433 1433 1433 1433 1433 1433 1433 1433 1433 1433 1434 1434 1434 1435 1435 1436 1436 1437 1438 1438 1438 1438 1438 1439 1439 1439 1439 1439 1439 1439 1439 1438 1438 1437 1437 1436 1435 1434 1432 1430 1429 1427 1425
1431 1432 1431 1431 1431 1431 1431 1431 1431 1432 1432 1433 1433 1433 1434 1434 1435 1435 1436 1436 1436 1437 1437 1437 1437 1437 1438 1438 1438 1438 1438 1437 1437 1436 1436 1435 1433 1432 1431 1429 1428 1426 1424
1429 1430 1430 1429 1429 1429 1429 1429 1430 1430 1431 1431 1432 1432 1433 1433 1434 1434 1434 1435 1435 1435 1435 1436 1436 1436 1437 1437 1437 1436 1436 1436 1436 1435 1434 1433 1432 1431 1430 1429 1427 1426 1424
1428 1428 1428 1428 1428 1428 1428 1428 1428 1429 1429 1430 1430 1431 1432 1432 1432 1433 1433 1433 1434 1434 1434 1434 1435 1435 1435 1435 1435 1435 1435 1435 1434 1434 1433 1432 1431 1431 1429 1428 1427 1425 1424
1426 1426 1426 1426 1426 1426 1426 1427 1427 1428 1428 1429 1429 1430 1430 1431 1431 1432 1432 1432 1432 1433 1433 1433 1434 1434 1434 1434 1434 1434 1433 1433 1433 1432 1432 1431 1431 1430 1429 1428 1426 1425 1424
1424 1424 1424 1424 1424 1425 1425 1425 1426 1427 1427 1428 1428 1429 1429 1430 1430 1430 1431 1431 1431 1432 1432 1432 1432 1433 1433 1433 1432 1432 1432 1432 1431 1431 1431 1430 1430 1429 1428 1427 1426 1425 1424
1422 1422 1422 1423 1423 1423 1424 1424 1425 1425 1426 1427 1427 1428 1428 1429 1429 1429 1430 1430 1430 1430 1430 1431 1431 1431 1431 1431 1431 1431 1431 1430 1430 1430 1429 1429 1429 1428 1428 1427 1426 1425 1424
1420 1420 1421 1421 1421 1422 1422 1423 1424 1424 1425 1425 1426 1426 1427 1427 1428 1428 1429 1429 1429 1429 1429 1429 1429 1429 1429 1429 1429 1429 1429 1429 1428 1428 1428 1428 1428 1427 1427 1426 1426 1425 1424